Regional Weather Roundup
Issued by NWS Newport/Morehead, NC

Current Version | Previous Version | Graphics & Text | Print | Product List | Glossary Off
Versions: 1 2 3 4 5 6 7 8 9 10 11 12 13 14 15 16 17 18 19 20 21 22 23 24 25 26 27 28 29 30 31 32 33 34 35 36 37 38 39 40 41 42 43 44 45 46 47 48 49 50

000
ASUS42 KMHX 240024
RWRMHX
WEATHER ROUNDUP FOR EASTERN NORTH CAROLINA
NATIONAL WEATHER SERVICE NEWPORT/MOREHEAD CITY NC
800 PM EDT THU MAR 23 2017

NOTE: "FAIR" INDICATES FEW OR NO CLOUDS BELOW 12,000 FEET
WITH NO SIGNIFICANT WEATHER AND/OR OBSTRUCTIONS TO VISIBILITY

NCZ015>017-031-032-045>047-102-103-240100-
NORTH COAST

CITY           SKY/WX    TMP DP  RH WIND       PRES   REMARKS
EDENTON        CLEAR     39  29  66 E5        30.58S
ELIZABETH CITY CLEAR     37  25  61 E8        30.59S
KITTY HAWK     NOT AVBL
MANTEO         CLEAR     36  26  65 E6        30.59F

$$

NCZ045>047-081-094-103-104-240100-
CENTRAL COAST

CITY           SKY/WX    TMP DP  RH WIND       PRES   REMARKS
FRISCO         CLEAR     41  29  62 NE8       30.57F

$$

NCZ095-097-098-100-101-240100-
SOUTHERN COAST

CITY           SKY/WX    TMP DP  RH WIND       PRES   REMARKS
BEAUFORT       CLEAR     43  30  60 NE7       30.57S
CEDAR ISLAND   NOT AVBL
JACKSONVILLE   CLEAR     48  31  51 SE10      30.54S
PINEY ISLAND   CLEAR    N/A N/A N/A E12       30.56F
WILMINGTON     CLEAR     48  33  56 E6        30.54F


$$

NCZ011>013-027>030-043-044-078>080-089-090>093-098-240100-
COASTAL PLAIN

CITY           SKY/WX    TMP DP  RH WIND       PRES   REMARKS
AHOSKIE        NOT AVBL
CLINTON        CLEAR     47  31  54 CALM      30.53S
ELIZABETHTOWN  CLEAR     50  33  53 SE3       30.53R
GOLDSBORO      CLEAR     47  25  42 CALM      30.52R
GREENVILLE     CLEAR     45  27  49 SE3       30.54S
HAVELOCK       PTCLDY    42  30  62 E7        30.57F
KENANSVILLE    CLEAR     41  34  75 CALM      30.54R
KINSTON        CLEAR     48  23  37 E3        30.55R
NEW BERN       CLEAR     44  32  62 E7        30.57S
RICHLANDS      CLEAR     47  30  51 E5        30.55R
ROCKY MOUNT    CLEAR     43  25  49 E3        30.53F
WASHINGTON     CLEAR     42  26  53 E5        30.56S
WHITEVILLE     CLEAR     50  32  49 E5        30.52S

$$

AMZ130-135-150-152-154-156-158-170-250-252-270-ANZ085-086-088-633-658-670-240100-
MARINE OBSERVATIONS

STATION/POSITION TIME  TEMP    WIND        PRES    WAVE   SWELL
                       AIR SEA DIR/SP/G            HT/PER HT/PER
                 (UTC) (F)     (DEG/KT/KT) (MB)    (FT/S) (FT/S)
CHESAPEAKE LIGHT NOT AVBL
64 E VA BEACH    2350   39 50   30/  8/ 10 1035.4    5/ 7   5/ 7
DUCK             0000   38 48   50/  8/  9 1035.2
2 E DUCK         0000      47                N/A     4/ 8
OREGON INLET     0000   39 49   40/  8/ 12 1035.6
13E OREGON INLT  NOT AVBL
HATTERAS CG      0000   41 52   40/  9/ 12 1034.8
DIAMOND BUOY     2350   47 73   30/ 12/ 17 1034.9   10/11  10/11
CAPE LOOKOUT     0000   46      30/ 13/ 14 1034.6
BEAUFORT LAB     0000   43 52   60/  2/  6 1034.3
30 SE NEW RVR IN 0008   51      50/ 12/ 19 1034.6
30 SE NEW RVR IN 2343      68                N/A     5/12   2/12
27 SE WRIGHTSVLE 0008   51 61   80/ 16/ 21 1033.3
5 SE WRIGHTSVLE  0008   51 56  100/ 14/ 25 1034.1
225 S CAPE HAT   2350   61 72   50/ 19/ 23 1030.7    7/10   7/10
41 SE CHARLESTON 2350   61 71   50/ 21/ 25 1030.7    7/ 7   2/10

$$




USA.gov is the U.S. government's official web portal to all federal, state and local government web resources and services.